Location: Alta
(39.2070°N, 120.8111°W)
Time: 16:09:55
(UTC+00:00)

DELFI C3 - Visible Passes

Search period start: 20 March 2023 00:00
Search period end: 30 March 2023 00:00
Orbit: 478 x 492 km, 97.3° (Epoch: 19 March)

Date Brightness Start Highest point End Pass type
(mag) Time Alt. Az. Time Alt. Az. Time Alt. Az.
20 Mar ? 03:20:12 10° SW 03:22:58 21° W 03:25:44 10° NW visible
21 Mar ? 02:55:21 10° S 02:58:45 43° W 03:02:11 10° NNW visible
23 Mar ? 03:42:42 10° WSW 03:43:56 11° W 03:45:09 10° WNW visible
24 Mar ? 03:16:29 10° SSW 03:19:22 23° W 03:22:16 10° NW visible
25 Mar ? 02:51:21 10° S 02:54:48 49° W 02:58:17 10° NNW visible
27 Mar ? 03:37:27 10° WSW 03:39:11 13° W 03:40:56 10° WNW visible
28 Mar ? 03:11:15 10° SSW 03:14:17 26° W 03:17:21 10° NW visible
29 Mar ? 02:45:53 10° S 02:49:23 59° W 02:52:54 10° NNW visible
